TimePDT,TemperatureF,Dew PointF,Humidity,Sea Level PressureIn,VisibilityMPH,Wind Direction,Wind SpeedMPH,Gust SpeedMPH,PrecipitationIn,Events,Conditions,WindDirDegrees,DateUTC
12:53 AM,57.0,46.9,69,29.89,10.0,SSW,13.8,-,N/A,,Clear,200,2013-08-25 07:53:00
1:53 AM,57.0,46.9,69,29.93,10.0,South,11.5,-,N/A,,Clear,180,2013-08-25 08:53:00
2:53 AM,55.9,46.9,72,29.92,10.0,SSW,9.2,-,N/A,,Clear,200,2013-08-25 09:53:00
3:53 AM,55.0,46.9,74,29.96,10.0,SSW,11.5,-,N/A,,Clear,200,2013-08-25 10:53:00
4:53 AM,55.9,48.0,75,29.97,10.0,SSW,15.0,-,N/A,,Clear,200,2013-08-25 11:53:00
5:53 AM,54.0,48.0,80,30.00,10.0,South,10.4,-,N/A,,Clear,190,2013-08-25 12:53:00
6:53 AM,55.9,48.0,75,30.01,10.0,South,12.7,-,0.01,,Clear,190,2013-08-25 13:53:00
7:53 AM,62.1,48.9,62,30.00,10.0,South,15.0,-,N/A,,Clear,190,2013-08-25 14:53:00
8:53 AM,68.0,48.9,50,29.97,10.0,South,19.6,23.0,N/A,,Clear,170,2013-08-25 15:53:00
9:53 AM,72.0,46.9,41,29.96,10.0,South,16.1,26.5,N/A,,Clear,180,2013-08-25 16:53:00
10:53 AM,75.0,45.0,34,29.94,10.0,South,15.0,-,N/A,,Clear,170,2013-08-25 17:53:00
11:53 AM,77.0,42.1,29,29.91,10.0,SSE,17.3,26.5,N/A,,Clear,150,2013-08-25 18:53:00
12:53 PM,77.0,42.1,29,29.90,10.0,SSE,23.0,28.8,N/A,,Clear,150,2013-08-25 19:53:00
1:53 PM,79.0,39.9,25,29.87,10.0,SSE,13.8,24.2,N/A,,Clear,150,2013-08-25 20:53:00
2:53 PM,78.1,41.0,27,29.85,10.0,SSE,17.3,26.5,N/A,,Scattered Clouds,160,2013-08-25 21:53:00
3:53 PM,78.1,39.0,25,29.84,10.0,South,16.1,24.2,N/A,,Scattered Clouds,170,2013-08-25 22:53:00
4:53 PM,81.0,28.0,14,29.83,10.0,SSW,21.9,29.9,N/A,,Partly Cloudy,200,2013-08-25 23:53:00
5:53 PM,75.9,41.0,29,29.85,10.0,SSE,20.7,27.6,N/A,,Clear,160,2013-08-26 00:53:00
6:53 PM,71.1,48.9,45,29.87,10.0,SSE,18.4,29.9,N/A,,Clear,150,2013-08-26 01:53:00
7:53 PM,66.9,48.9,52,29.90,10.0,SE,18.4,31.1,N/A,,Clear,140,2013-08-26 02:53:00
8:53 PM,66.0,51.1,59,29.90,10.0,SSE,25.3,35.7,N/A,,Clear,160,2013-08-26 03:53:00
9:53 PM,63.0,52.0,67,29.91,10.0,South,18.4,-,N/A,,Clear,170,2013-08-26 04:53:00
10:53 PM,62.1,52.0,70,29.91,10.0,SSE,18.4,24.2,N/A,,Clear,160,2013-08-26 05:53:00
11:53 PM,61.0,51.1,70,29.92,10.0,SSE,19.6,25.3,N/A,,Clear,160,2013-08-26 06:53:00